Weather History for Aberdeen, SD

Change the Weather History Date:

Friday, December 7, 2012

  Actual Average Record
Temperature  
Mean Temperature 27 °F 18 °F  
Max Temperature 31 °F 28 °F 60 °F (1918)
Min Temperature 22 °F 9 °F -27 °F (2013)
Degree Days  
Heating Degree Days 38 47  
Month to date heating degree days 228 319  
Since 1 July heating degree days 2123 2282  
Cooling Degree Days 0 0  
Month to date cooling degree days 0 0  
Year to date cooling degree days 764 525  
Moisture  
Dew Point 26 °F    
Average Humidity 84    
Maximum Humidity 92    
Minimum Humidity 75    
Precipitation  
Precipitation 0.24 in 0.02 in 0.30 in (1957)
Month to date precipitation 0.24 0.13  
Year to date precipitation 14.13 21.33  
Snow  
Snow 2.20 in - - ()
Month to date snowfall 2.2  
Since 1 July snowfall 2.8  
Snow Depth 0.00 in    
Sea Level Pressure  
Sea Level Pressure 30.01 in    
Wind  
Wind Speed 4 mph (ESE)    
Max Wind Speed 10 mph    
Max Gust Speed 13 mph    
Visibility 3 miles    
Events Fog , Snow    
T = Trace of Precipitation, MM = Missing Value Source: NWS Daily Summary

Daily Weather History Graph

Daily Weather History Graph

Search for Another Location

Airport:

Trip Planner

Search our weather history database for the weather conditions in past years. The results will help you decide how hot, cold, wet, or windy it might be!

Date:

Astronomy

Dec. 07, 2012 Rise Set
Actual Time 8:00 AM CST 4:50 PM CST
Civil Twilight 7:26 AM CST 5:24 PM CST
Nautical Twilight 6:49 AM CST 6:01 PM CST
Astronomical Twilight 6:13 AM CST 6:37 PM CST
Moon 1:04 AM CST (12/7) 1:02 PM CST (12/7)
Length of Visible Light 9h 57m
Length of Day
8h 50m
Last Quarter, 38% of the Moon is Illuminated
Dec 7
Last Quarter
Dec 13
New
Dec 19
First Quarter
Dec 28
Full
Jan 4
Last Quarter

Hourly Weather History & Observations

Time (CST) Temp. Windchill Dew Point Humidity Pressure Visibility Wind Dir Wind Speed Gust Speed Precip Events Conditions
12:53 AM 24.1 °F - 19.0 °F 81% 30.03 in 10.0 mi Calm Calm - N/A   Clear
1:53 AM 24.1 °F - 19.9 °F 84% 30.02 in 10.0 mi Calm Calm - N/A   Overcast
2:53 AM 23.0 °F - 19.9 °F 88% 30.03 in 10.0 mi Calm Calm - N/A   Overcast
3:53 AM 25.0 °F - 19.9 °F 81% 30.01 in 10.0 mi Calm Calm - N/A   Overcast
4:53 AM 25.0 °F 19.3 °F 21.0 °F 85% 30.01 in 10.0 mi South 4.6 mph - N/A   Overcast
5:53 AM 28.4 °F 22.2 °F 21.2 °F 74% 29.98 in 10.0 mi SSW 5.8 mph - N/A   Overcast
6:53 AM 30.0 °F 21.1 °F 24.1 °F 79% 30.05 in 5.0 mi SSW 10.4 mph - 0.00 in Snow Light Snow
7:07 AM 28.4 °F 21.2 °F 24.8 °F 86% 29.99 in 2.5 mi SSW 6.9 mph - 0.00 in Snow Light Snow
7:25 AM 28.4 °F 22.2 °F 26.6 °F 93% 30.00 in 1.5 mi SSW 5.8 mph - 0.01 in Snow Light Snow
7:33 AM 28.4 °F 22.2 °F 26.6 °F 93% 30.00 in 1.2 mi SSW 5.8 mph - 0.01 in Snow Light Snow
7:53 AM 28.9 °F 23.9 °F 26.1 °F 89% 30.06 in 1.2 mi South 4.6 mph - 0.02 in Snow Light Snow
8:35 AM 28.4 °F 24.6 °F 26.6 °F 93% 30.00 in 0.5 mi SE 3.5 mph - 0.02 in Fog , Snow Light Snow
8:53 AM 28.9 °F 22.8 °F 27.0 °F 92% 30.05 in 0.5 mi SE 5.8 mph - 0.03 in Fog , Snow Light Snow
9:39 AM 28.4 °F 22.2 °F 26.6 °F 93% 30.00 in 0.8 mi SSE 5.8 mph - 0.02 in Snow Light Snow
9:53 AM 28.9 °F 21.9 °F 27.0 °F 92% 30.06 in 0.8 mi SSE 6.9 mph - 0.02 in Snow Light Snow
10:53 AM 30.0 °F 26.5 °F 28.0 °F 92% 30.05 in 0.8 mi SE 3.5 mph - 0.03 in Snow Light Snow
11:00 AM 30.2 °F 25.4 °F 28.4 °F 93% 30.00 in 1.0 mi SE 4.6 mph - 0.00 in Snow Light Snow
11:07 AM 30.2 °F 25.4 °F 28.4 °F 93% 30.00 in 1.0 mi SE 4.6 mph - 0.00 in Snow Light Snow
11:53 AM 30.0 °F 25.2 °F 28.0 °F 92% 30.04 in 1.0 mi East 4.6 mph - 0.02 in Snow Light Snow
12:00 PM 30.2 °F 24.3 °F 28.4 °F 93% 29.98 in 0.8 mi ESE 5.8 mph - 0.00 in Snow Light Snow
12:07 PM 30.2 °F 24.3 °F 28.4 °F 93% 29.98 in 0.8 mi ESE 5.8 mph - 0.00 in Snow Light Snow
12:19 PM 30.2 °F 23.4 °F 28.4 °F 93% 29.98 in 0.8 mi East 6.9 mph - 0.00 in Snow Light Snow
12:35 PM 30.2 °F 25.4 °F 28.4 °F 93% 29.97 in 1.0 mi ESE 4.6 mph - 0.01 in Snow Light Snow
12:53 PM 30.9 °F 24.3 °F 28.0 °F 89% 30.02 in 1.2 mi ESE 6.9 mph - 0.01 in Snow Light Snow
1:03 PM 30.2 °F 24.3 °F 28.4 °F 93% 29.97 in 1.8 mi East 5.8 mph - 0.00 in Snow Light Snow
1:31 PM 30.2 °F 23.4 °F 28.4 °F 93% 29.96 in 1.2 mi ESE 6.9 mph - 0.01 in Snow Light Snow
1:42 PM 30.2 °F 25.4 °F 28.4 °F 93% 29.96 in 1.8 mi ESE 4.6 mph - 0.01 in Snow Light Snow
1:53 PM 30.9 °F 27.5 °F 28.0 °F 89% 30.02 in 1.8 mi ESE 3.5 mph - 0.01 in Snow Light Snow
2:05 PM 30.2 °F 26.7 °F 28.4 °F 93% 29.97 in 1.2 mi SE 3.5 mph - 0.00 in Snow Light Snow
2:28 PM 30.2 °F 26.7 °F 28.4 °F 93% 29.97 in 0.8 mi ESE 3.5 mph - 0.01 in Snow Light Snow
2:46 PM 30.2 °F 26.7 °F 28.4 °F 93% 29.97 in 1.0 mi SE 3.5 mph - 0.02 in Snow Light Snow
2:53 PM 30.9 °F - 28.0 °F 89% 30.02 in 1.2 mi Calm Calm - 0.02 in Snow Light Snow
3:11 PM 30.2 °F 26.7 °F 28.4 °F 93% 29.97 in 0.8 mi East 3.5 mph - 0.00 in Snow Light Snow
3:42 PM 30.2 °F - 28.4 °F 93% 29.97 in 0.8 mi Calm Calm - 0.01 in Snow Light Snow
3:53 PM 30.9 °F - 28.0 °F 89% 30.03 in 1.0 mi Calm Calm - 0.02 in Snow Light Snow
4:03 PM 30.2 °F - 28.4 °F 93% 29.98 in 1.2 mi Calm Calm - 0.00 in Snow Light Snow
4:11 PM 30.2 °F - 28.4 °F 93% 29.98 in 1.2 mi Calm Calm - 0.00 in Snow Light Snow
4:19 PM 30.2 °F - 28.4 °F 93% 29.98 in 1.5 mi Calm Calm - 0.00 in Snow Light Snow
4:21 PM 30.2 °F - 28.4 °F 93% 29.98 in 1.2 mi Calm Calm - 0.00 in Snow Light Snow
4:33 PM 30.2 °F - 28.4 °F 93% 29.98 in 0.8 mi Calm Calm - 0.01 in Snow Light Snow
4:40 PM 30.2 °F - 28.4 °F 93% 29.99 in 1.0 mi Calm Calm - 0.01 in Snow Light Snow
4:53 PM 30.9 °F - 28.9 °F 92% 30.04 in 1.0 mi Calm Calm - 0.01 in Snow Light Snow
5:04 PM 30.2 °F - 28.4 °F 93% 29.99 in 1.8 mi Calm Calm - 0.00 in Snow Light Snow
5:32 PM 30.2 °F - 28.4 °F 93% 29.99 in 1.2 mi Calm Calm - 0.01 in Snow Light Snow
5:48 PM 30.2 °F - 28.4 °F 93% 29.99 in 1.5 mi Calm Calm - 0.02 in Snow Light Snow
5:53 PM 30.9 °F - 28.0 °F 89% 30.04 in 1.5 mi Calm Calm - 0.02 in Snow Light Snow
6:04 PM 30.2 °F - 28.4 °F 93% 30.00 in 1.2 mi Calm Calm - 0.00 in Snow Light Snow
6:29 PM 30.2 °F 26.7 °F 28.4 °F 93% 30.00 in 1.5 mi ENE 3.5 mph - 0.01 in Snow Light Snow
6:46 PM 26.6 °F 19.1 °F 23.0 °F 86% 30.01 in 2.0 mi NE 6.9 mph - 0.01 in Snow Light Snow
6:53 PM 26.6 °F 17.5 °F 21.2 °F 80% 30.01 in 3.0 mi NE 9.2 mph - N/A Snow Light Snow
7:53 PM 24.8 °F 16.1 °F 19.4 °F 80% 30.01 in 2.5 mi NNE 8.1 mph - N/A Snow Light Snow
8:02 PM 23.0 °F 13.9 °F 19.4 °F 86% 30.01 in 3.0 mi NNE 8.1 mph - 0.00 in Snow Light Snow
8:53 PM 21.9 °F 13.4 °F 19.0 °F 89% 30.06 in 7.0 mi NE 6.9 mph - 0.01 in   Overcast
9:53 PM 21.9 °F 14.5 °F 18.0 °F 85% 30.06 in 8.0 mi NNE 5.8 mph - N/A   Overcast
10:53 PM 21.9 °F 15.7 °F 18.0 °F 85% 30.04 in 8.0 mi NE 4.6 mph - N/A   Overcast
11:53 PM 21.9 °F 14.5 °F 19.0 °F 89% 30.04 in 8.0 mi NE 5.8 mph - N/A   Overcast